User: anonymous   Login
Location: Mentone
(34.5413°N, 85.5351°W)
Time: 19:59:04
(UTC-06:00)
Language:

Transit 2A Rocket - Orbit

View from above orbital plane
View from above orbital plane
View from above satellite
View from above satellite

Ground track
Ground track

The orbit data is extracted from the following two-line orbital elements,

1 00047U 60007C   16038.55035661  .00000121  00000-0  52404-4 0  9996
2 00047  66.6656  90.7209 0225370  25.9555 335.2646 14.41771120905613
Epoch (UTC): 07 February 2016 13:12:30
Eccentricity: 0.0225370
inclination: 66.6656°
perigee height: 592 km
apogee height: 913 km
right ascension of ascending node: 90.7209°
argument of perigee: 25.9555°
revolutions per day: 14.41771120
mean anomaly at epoch: 335.2646°
orbit number at epoch: 90561

The dashed part of the orbit path shows where the satellite is in the earth's shadow,  

DLR